Miscellaneous Local Product
Issued by NWS Hastings, NE

Home | Current Version | Previous Version | Graphics & Text | Print | Product List | Glossary On
Versions: 1 2 3 4 5 6 7 8 9 10 11 12 13 14 15 16 17 18 19 20 21 22 23 24 25 26 27 28 29 30 31 32 33 34 35 36 37 38 39 40 41 42 43 44 45 46 47 48 49 50
000
AXUS43 KGID 280202
MISGRI

GID CWA HOURLY WEATHER ROUNDUP
NATIONAL WEATHER SERVICE HASTINGS NE
800 PM CST FRI FEB 27 2015

NOTE: "FAIR" INDICATES FEW OR NO CLOUDS BELOW 12,000 FEET WITH NO
SIGNIFICANT WEATHER AND/OR OBSTRUCTIONS TO VISIBILITY.

...SOUTH CENTRAL NEBRASKA...

CITY           SKY/WX    TMP DP  RH WIND       PRES   REMARKS
GRAND ISLAND   CLEAR     15  -1  49 S12       30.40R WCI   2
HASTINGS       PTCLDY    13  -3  49 S7        30.38S WCI   3
KEARNEY        CLEAR     12  -4  48 S10       30.36R WCI  -1
ORD            CLEAR     16  -6  37 SE10      30.33R WCI   4
YORK           CLOUDY    16   1  53 S8        30.43R WCI   5
AURORA         CLEAR     15   1  52 S9        30.40S WCI   3
LEXINGTON      PTCLDY    17  -1  45 S9        30.31R WCI   5
HOLDREGE       PTCLDY    12  -4  49 SE7       30.34R WCI   2
HEBRON         PTCLDY    13   0  58 S3        30.46S

...NEBRASKA PANHANDLE...

CITY           SKY/WX    TMP DP  RH WIND       PRES   REMARKS
CHADRON        PTCLDY    19   8  62 S12       30.04R WCI   7
ALLIANCE       CLOUDY    17   7  64 S21G26    30.03S WCI   0
SCOTTSBLUFF    CLOUDY    19   9  65 S10       30.02R WCI   7
SIDNEY         CLOUDY    14   8  77 S15       30.04S WCI  -1

...WESTERN AND NORTH CENTRAL NEBRASKA...

CITY           SKY/WX    TMP DP  RH WIND       PRES   REMARKS
VALENTINE      CLEAR     20   3  48 S14       30.19R WCI   7
AINSWORTH      CLEAR     17  -1  46 S10       30.22S WCI   4
ONEILL         CLEAR     17  -2  43 SE9       30.32S WCI   6
BROKEN BOW     CLEAR     17  -2  43 S13G23    30.28R WCI   4
IMPERIAL         N/A     17   5  59 S18       30.18R WCI   1
NORTH PLATTE   CLOUDY    19   7  59 S14       30.23S WCI   6
MCCOOK         CLOUDY    20   7  57 S15       30.28R WCI   6

...EASTERN NEBRASKA...

CITY           SKY/WX    TMP DP  RH WIND       PRES   REMARKS
NORFOLK        CLEAR     14   2  58 SE9       30.42R WCI   2
SO SIOUX CITY  CLEAR     11   2  67 SE12      30.50R WCI  -3
TEKAMAH        CLEAR     13   4  67 SE9       30.52R WCI   1
COLUMBUS       CLEAR     12  -6  44 SE7       30.45S WCI   2
ALBION         CLEAR     14  -2  48 SE6       30.39R WCI   5
OMAHA EPPLEY   CLEAR     14   4  64 E5        30.54R WCI   6
OFFUTT AFB     CLEAR     11   2  68 E5        30.52R WCI   2
MILLARD        CLEAR     16   3  56 CALM      30.52R
LINCOLN        CLEAR     14   1  56 S7        30.50R WCI   4
NEBRASKA CITY  FAIR      14  -5  42 SE3       30.52R
BEATRICE       PTCLDY    15   1  51 SE3       30.48S
FALLS CITY     PTCLDY    12  -1  56 SE7       30.54S WCI   1

...NORTHERN KANSAS...

CITY           SKY/WX    TMP DP  RH WIND       PRES   REMARKS
GOODLAND       CLOUDY    12   7  80 S17       30.17R WCI  -5
HILL CITY      CLOUDY    17   7  64 S12       30.35S WCI   4
NORTON         CLOUDY    18   5  57 S12       30.32S WCI   5
PHILLIPSBURG   CLEAR     16   5  62 SE5       30.39S WCI   9
HAYS           CLOUDY    18   1  49 SE10      30.37S WCI   6
RUSSELL        FAIR      12   8  84 SE7       30.39S WCI   1
CONCORDIA      CLEAR     10   1  67 SE7       30.46S WCI  -1
SALINA         CLOUDY    17   8  67 SE7       30.48S WCI   8
TOPEKA         CLOUDY    17   2  51 E7        30.55S WCI   8



USA.gov is the U.S. government's official web portal to all federal, state and local government web resources and services.